User: anonymous   Login
Location: Unspecified
(0.0000°N, 0.0000°E)
Time: 15:34:30
(UTC+00:00)
Language:

Amsat-Oscar-6 - Orbit

View from above orbital plane
View from above orbital plane
View from above satellite
View from above satellite

Ground track
Ground track

The orbit data is extracted from the following two-line orbital elements,

1  6236U 72082B   19078.38218425 -.00000051 +00000-0 -39110-4 0  9990
2  6236 101.8132 047.2028 0004233 161.5645 353.2215 12.53148379123413
Epoch (UTC): 19 March 2019 09:10:20
Eccentricity: 0.0004233
inclination: 101.8132°
perigee height: 1448 km
apogee height: 1454 km
right ascension of ascending node: 47.2028°
argument of perigee: 161.5645°
revolutions per day: 12.53148379
mean anomaly at epoch: 353.2215°
orbit number at epoch: 12341

The dashed part of the orbit path shows where the satellite is in the earth's shadow,  

DLR